FW6471 Weather Reports


Display with metric or nautical units.
time (UTC)temp
F
wind
direction
speed
MPH
gust
MPH
rain 1hr
in
rain 24hr
in
rain mn
in
humidity
%
barometer
mb
20260505000608 75 140 1.0 3.0 0.00 0.00 0.00 67 1016.0
20260505000114 75 140 1.0 2.0 0.00 0.00 0.00 66 1015.9
20260504235108 76 141 1.0 3.0 0.00 0.00 0.00 65 1015.8
20260504234107 76 122 2.0 7.0 0.00 0.00 0.00 64 1015.7
20260504232608 77 130 2.0 3.0 0.00 0.00 0.00 63 1015.5
20260504232108 77 111 1.0 3.0 0.00 0.00 0.00 62 1015.4
20260504231607 77 66 1.0 3.0 0.00 0.00 0.00 62 1015.4
20260504231107 78 97 2.0 5.0 0.00 0.00 0.00 61 1015.4
20260504230608 78 51 2.0 5.0 0.00 0.00 0.00 61 1015.5
20260504230114 78 109 3.0 5.0 0.00 0.00 0.00 61 1015.5
20260504225608 78 120 2.0 5.0 0.00 0.00 0.00 60 1015.4
20260504225107 78 48 2.0 5.0 0.00 0.00 0.00 60 1015.4
20260504224607 78 136 1.0 3.0 0.00 0.00 0.00 60 1015.4
20260504223607 79 85 2.0 3.0 0.00 0.00 0.00 58 1015.4
20260504223107 79 73 2.0 3.0 0.00 0.00 0.00 57 1015.5
20260504222607 79 116 1.0 3.0 0.00 0.00 0.00 56 1015.4
20260504222107 80 121 1.0 3.0 0.00 0.00 0.00 55 1015.5
20260504221607 80 136 2.0 3.0 0.00 0.00 0.00 55 1015.5
20260504220607 80 111 2.0 5.0 0.00 0.00 0.00 56 1015.4
20260504220113 80 145 1.0 3.0 0.00 0.00 0.00 55 1015.4
20260504215107 80 146 1.0 7.0 0.00 0.00 0.00 54 1015.4
20260504214107 80 103 2.0 3.0 0.00 0.00 0.00 53 1015.4
20260504213607 80 121 1.0 7.0 0.00 0.00 0.00 53 1015.3
20260504213107 81 110 2.0 5.0 0.00 0.00 0.00 51 1015.3
20260504212607 81 157 2.0 5.0 0.00 0.00 0.00 52 1015.4
20260504212108 81 114 2.0 5.0 0.00 0.00 0.00 52 1015.4
20260504211107 81 94 0.0 2.0 0.00 0.00 0.00 52 1015.5
20260504210607 81 112 1.0 3.0 0.00 0.00 0.00 52 1015.5
20260504205607 83 121 1.0 3.0 0.00 0.00 0.00 48 1015.5
20260504205108 84 89 2.0 7.0 0.00 0.00 0.00 46 1015.4
20260504204607 85 73 3.0 6.0 0.00 0.00 0.00 45 1015.3
20260504204108 84 183 2.0 7.0 0.00 0.00 0.00 45 1015.4
20260504203607 84 63 3.0 6.0 0.00 0.00 0.00 43 1015.4
20260504203108 84 78 2.0 5.0 0.00 0.00 0.00 45 1015.4
20260504202107 83 135 3.0 5.0 0.00 0.00 0.00 45 1015.7
20260504201108 83 86 1.0 3.0 0.00 0.00 0.00 44 1015.8
20260504200607 84 47 2.0 6.0 0.00 0.00 0.00 44 1016.0
20260504200114 83 69 3.0 7.0 0.00 0.00 0.00 43 1015.9
20260504195607 83 31 2.0 6.0 0.00 0.00 0.00 43 1016.0
20260504195107 83 22 2.0 6.0 0.00 0.00 0.00 42 1016.0
20260504194607 83 76 2.0 6.0 0.00 0.00 0.00 42 1016.1
20260504194107 84 167 3.0 8.0 0.00 0.00 0.00 41 1016.1
20260504193607 84 84 2.0 7.0 0.00 0.00 0.00 41 1016.3
20260504193107 84 50 2.0 7.0 0.00 0.00 0.00 41 1016.4
20260504192607 84 46 2.0 6.0 0.00 0.00 0.00 42 1016.4
20260504192107 84 345 1.0 5.0 0.00 0.00 0.00 44 1016.4
20260504191608 82 189 1.0 3.0 0.00 0.00 0.00 43 1016.5
20260504191107 82 108 1.0 8.0 0.00 0.00 0.00 43 1016.6
20260504190607 82 187 2.0 3.0 0.00 0.00 0.00 43 1016.6
20260504190113 82 282 1.0 6.0 0.00 0.00 0.00 42 1016.8
20260504185607 82 144 1.0 5.0 0.00 0.00 0.00 42 1016.9
20260504185107 82 101 2.0 6.0 0.00 0.00 0.00 45 1017.0
20260504184107 83 143 2.0 5.0 0.00 0.00 0.00 42 1017.1
20260504183607 83 139 2.0 5.0 0.00 0.00 0.00 43 1017.2
20260504183108 83 116 2.0 5.0 0.00 0.00 0.00 42 1017.4
20260504182606 83 21 2.0 3.0 0.00 0.00 0.00 43 1017.6
20260504182107 83 81 2.0 7.0 0.00 0.00 0.00 44 1017.6
20260504181607 83 152 2.0 5.0 0.00 0.00 0.00 43 1017.5
20260504180606 82 125 2.0 5.0 0.00 0.00 0.00 45 1017.7
20260504180113 83 157 2.0 3.0 0.00 0.00 0.00 44 1017.7
20260504174607 82 31 2.0 8.0 0.00 0.00 0.00 44 1017.8
20260504174107 82 355 2.0 6.0 0.00 0.00 0.00 45 1017.9
20260504173606 82 56 3.0 6.0 0.00 0.00 0.00 45 1018.0
20260504173107 83 248 1.0 6.0 0.00 0.00 0.00 43 1017.9
20260504172607 82 92 1.0 3.0 0.00 0.00 0.00 47 1018.0
20260504172107 81 319 2.0 5.0 0.00 0.00 0.00 46 1018.0
20260504171607 81 26 2.0 7.0 0.00 0.00 0.00 47 1018.1
20260504171108 81 340 3.0 9.0 0.00 0.00 0.00 47 1018.1
20260504170607 80 55 3.0 7.0 0.00 0.00 0.00 47 1018.3
20260504170113 80 115 1.0 3.0 0.00 0.00 0.00 48 1018.1
20260504160112 81 76 3.0 10.0 0.00 0.00 0.00 49 1019.0
20260504151107 79 69 2.0 7.0 0.00 0.00 0.00 56 1018.9
20260504150607 79 309 3.0 5.0 0.00 0.00 0.00 54 1018.9
20260504150113 78 0 3.0 7.0 0.00 0.00 0.00 54 1019.0
20260504141106 76 318 3.0 5.0 0.00 0.00 0.00 59 1019.0
20260504140607 76 34 3.0 9.0 0.00 0.00 0.00 59 1019.0
20260504140113 76 45 2.0 7.0 0.00 0.00 0.00 60 1018.9
20260504130607 68 90 2.0 5.0 0.00 0.00 0.00 79 1018.6
20260504130113 67 314 2.0 5.0 0.00 0.00 0.00 79 1018.6
20260504120113 62 313 2.0 3.0 0.00 0.00 0.00 90 1018.2
20260504110606 60 310 1.0 3.0 0.00 0.00 0.00 90 1018.0
20260504110113 60 309 2.0 3.0 0.00 0.00 0.00 90 1017.9
20260504100113 61 325 0.0 2.0 0.00 0.00 0.00 89 1017.5
20260504081606 62 329 1.0 3.0 0.00 0.00 0.00 87 1017.5
20260504081106 62 327 2.0 3.0 0.00 0.00 0.00 87 1017.6
20260504080606 62 327 1.0 3.0 0.00 0.00 0.00 87 1017.6
20260504080112 62 326 1.0 2.0 0.00 0.00 0.00 87 1017.5
20260504070112 63 316 2.0 3.0 0.00 0.00 0.00 86 1018.0
20260504060112 64 329 0.0 1.0 0.00 0.00 0.00 86 1018.0
20260504050606 65 115 0.0 15.0 0.00 0.00 0.00 86 1018.5
20260504050112 65 115 0.0 0.0 0.00 0.00 0.00 85 1018.6
20260504045605 65 115 0.0 0.0 0.00 0.00 0.00 85 1018.7
20260504044606 65 115 0.0 0.0 0.00 0.00 0.00 84 1018.8
20260504044106 65 115 0.0 0.0 0.00 0.00 0.00 84 1018.9
20260504043606 65 115 0.0 0.0 0.00 0.00 0.00 84 1019.0
20260504043106 65 115 0.0 0.0 0.00 0.00 0.00 84 1019.0
20260504042606 65 115 0.0 0.0 0.00 0.00 0.00 84 1018.9
20260504042105 65 115 0.0 0.0 0.00 0.00 0.00 84 1019.0
20260504041606 66 115 0.0 0.0 0.00 0.00 0.00 84 1019.0
20260504041106 66 115 0.0 0.0 0.00 0.00 0.00 84 1019.0
20260504040111 66 115 0.0 0.0 0.00 0.00 0.00 83 1019.0
20260504034605 66 115 0.0 0.0 0.00 0.00 0.00 84 1019.2
20260504033606 66 115 0.0 0.0 0.00 0.00 0.00 83 1019.2
20260504033106 66 115 0.0 0.0 0.00 0.00 0.00 83 1019.0
20260504032606 66 115 0.0 0.0 0.00 0.00 0.00 82 1019.0
20260504031605 67 115 0.0 0.0 0.00 0.00 0.00 82 1018.9
20260504031106 67 115 0.0 0.0 0.00 0.00 0.00 81 1018.8
20260504030112 68 115 0.0 0.0 0.00 0.00 0.00 80 1018.9
20260504025605 68 115 0.0 0.0 0.00 0.00 0.00 79 1018.9
20260504025106 68 115 0.0 0.0 0.00 0.00 0.00 79 1018.9
20260504024106 68 115 0.0 2.0 0.00 0.00 0.00 78 1018.8
20260504023106 69 121 0.0 0.0 0.00 0.00 0.00 78 1018.8
20260504022605 69 121 0.0 0.0 0.00 0.00 0.00 77 1018.7
20260504022106 69 121 0.0 0.0 0.00 0.00 0.00 77 1018.6
20260504021606 69 121 0.0 0.0 0.00 0.00 0.00 76 1018.6
20260504021105 69 121 0.0 0.0 0.00 0.00 0.00 76 1018.5
20260504020112 70 121 0.0 1.0 0.00 0.00 0.00 75 1018.4
20260504015606 70 121 0.0 1.0 0.00 0.00 0.00 75 1018.3
20260504014605 71 121 0.0 0.0 0.00 0.00 0.00 74 1018.2
20260504013606 71 121 0.0 0.0 0.00 0.00 0.00 73 1018.0
20260504013106 71 121 0.0 2.0 0.00 0.00 0.00 72 1017.8
20260504012605 71 121 1.0 3.0 0.00 0.00 0.00 72 1017.8
20260504011606 72 121 1.0 3.0 0.00 0.00 0.00 71 1017.7
20260504011105 72 121 1.0 2.0 0.00 0.00 0.00 71 1017.7
20260504005606 72 41 1.0 2.0 0.00 0.00 0.00 71 1017.6
20260504005105 73 41 1.0 3.0 0.00 0.00 0.00 71 1017.5
20260504004605 73 63 0.0 2.0 0.00 0.00 0.00 70 1017.5
20260504004106 73 62 1.0 3.0 0.00 0.00 0.00 70 1017.6
20260504003606 73 65 1.0 2.0 0.00 0.00 0.00 69 1017.5
20260504003105 73 65 1.0 3.0 0.00 0.00 0.00 68 1017.3
20260504002605 74 68 1.0 3.0 0.00 0.00 0.00 67 1017.2
20260504002106 74 28 1.0 3.0 0.00 0.00 0.00 67 1017.2
20260504001606 74 30 1.0 2.0 0.00 0.00 0.00 66 1017.2
20260504001105 75 60 1.0 3.0 0.00 0.00 0.00 66 1017.1